CW7769 Weather Reports


time (UTC)temp
C
wind
direction
speed
KPH
gust
KPH
rain 1hr
cm
rain 24hr
cm
rain mn
cm
humidity
%
barometer
mb
20260507113102 12 269 1.6 0.0 0.00 1.24 0.18 66 1015.2
20260507112118 12 240 3.2 9.7 0.00 1.24 0.18 67 1015.1
20260507105938 11 309 0.0 0.0 0.00 1.24 0.18 69 1015.2
20260507103819 11 244 0.0 0.0 0.00 1.24 0.18 70 1015.2
20260507102756 11 244 0.0 0.0 0.00 1.24 0.18 70 1015.3
20260507101740 11 244 0.0 0.0 0.00 1.24 0.18 71 1015.1
20260507100708 11 244 0.0 0.0 0.00 1.24 0.18 72 1015.0
20260507095713 11 244 0.0 0.0 0.00 1.24 0.18 73 1015.0
20260507094659 11 244 0.0 0.0 0.00 1.24 0.18 73 1014.9
20260507093641 11 244 1.6 6.4 0.00 1.24 0.18 74 1014.8
20260507092610 11 245 0.0 3.2 0.00 1.24 0.18 76 1014.7
20260507091627 11 252 0.0 0.0 0.00 1.24 0.18 78 1014.6
20260507090639 11 252 0.0 0.0 0.00 1.24 0.18 79 1014.5
20260507085608 10 281 0.0 11.3 0.00 1.24 0.18 79 1014.4
20260507084629 10 277 0.0 4.8 0.00 1.24 0.18 79 1014.4
20260507083558 10 259 4.8 11.3 0.00 1.24 0.18 80 1014.4
20260507082554 10 279 3.2 11.3 0.00 1.24 0.18 80 1014.3
20260507081608 10 275 1.6 11.3 0.00 1.24 0.18 80 1014.3
20260507080533 10 302 1.6 11.3 0.00 1.24 0.18 80 1014.1
20260507075507 10 283 1.6 9.7 0.00 1.24 0.18 80 1014.0
20260507074521 10 319 3.2 9.7 0.00 1.24 0.18 93 1013.9
20260507072349 10 223 0.0 0.0 0.00 1.24 0.18 81 1013.7
20260507070209 10 221 1.6 4.8 0.00 1.24 0.18 80 1013.5
20260507065227 10 219 0.0 3.2 0.00 1.24 0.18 80 1013.4
20260507063128 10 219 0.0 6.4 0.00 1.24 0.18 80 1013.3
20260507062103 10 230 0.0 0.0 0.00 1.24 0.18 93 1013.2
20260507055945 10 230 0.0 3.2 0.00 1.24 0.18 80 1013.0
20260507054920 10 289 0.0 0.0 0.00 1.24 0.18 80 1012.9
20260507053846 10 289 0.0 0.0 0.00 1.24 0.18 80 1012.7
20260507052836 10 289 0.0 0.0 0.00 1.24 0.18 80 1012.7
20260507051846 10 289 0.0 0.0 0.00 1.24 0.18 80 1012.6
20260507050829 10 289 0.0 0.0 0.00 1.24 0.18 80 1012.5
20260507043615 10 289 0.0 0.0 0.00 1.24 0.18 79 1012.0
20260507042631 10 289 0.0 0.0 0.00 1.24 0.18 79 1011.9
20260507041605 10 289 0.0 0.0 0.00 1.24 0.18 79 1011.8
20260507040609 9 289 0.0 0.0 0.00 1.24 0.18 79 1011.7
20260507035551 9 289 0.0 0.0 0.00 1.24 0.18 79 1011.7
20260507034553 9 289 0.0 0.0 0.00 1.24 0.18 79 1011.6
20260507033527 9 289 0.0 0.0 0.00 1.24 0.18 79 1011.5
20260507032509 9 289 0.0 0.0 0.00 1.24 0.18 79 1011.4
20260507030415 9 279 1.6 11.3 0.00 1.24 0.18 79 1011.3
20260507024305 10 342 0.0 0.0 0.00 1.24 0.18 79 1011.1
20260507023323 10 342 0.0 0.0 0.00 1.24 0.18 79 1011.1
20260507022330 10 342 0.0 0.0 0.00 1.24 0.18 79 1011.0
20260507015057 10 342 0.0 0.0 0.08 1.24 0.18 78 1010.6
20260507012917 10 342 0.0 0.0 0.08 1.22 0.15 78 1010.6
20260507011851 10 342 0.0 0.0 0.08 1.22 0.13 78 1010.5
20260507010849 10 342 0.0 0.0 0.08 1.19 0.10 78 1010.4
20260507005842 10 339 0.0 6.4 0.08 1.19 0.10 78 1010.4
20260507004904 10 10 0.0 1.6 0.20 1.17 0.08 77 1010.4
20260507003840 10 16 0.0 0.0 0.00 1.12 0.05 78 1010.3
20260507002856 10 34 1.6 6.4 0.00 1.12 0.05 77 1010.2
20260507000707 10 22 0.0 4.8 0.00 1.12 0.05 77 1010.1
20260506234621 10 35 0.0 0.0 0.00 1.12 0.05 77 1010.1
20260506233644 10 35 0.0 0.0 0.00 1.12 0.05 77 1010.1
20260506232639 10 35 0.0 0.0 0.00 1.12 0.05 77 1010.1
20260506230440 11 35 0.0 0.0 0.00 1.12 0.05 77 1009.9
20260506224331 11 35 0.0 0.0 0.00 1.12 0.05 76 1009.8
20260506220015 11 35 0.0 0.0 0.23 1.07 0.00 75 1009.6
20260506215006 11 35 0.0 0.0 0.56 1.02 1.02 75 1009.5
20260506214012 11 35 0.0 0.0 0.46 0.94 0.94 75 1009.5
20260506213018 11 32 0.0 0.0 0.58 0.84 0.84 74 1009.4
20260506212025 11 19 1.6 9.7 0.51 0.79 0.76 74 1009.1
20260506211007 11 38 0.0 3.2 0.74 0.66 0.66 74 1009.0
20260506204827 12 254 4.8 17.7 0.86 0.25 0.28 74 1008.5
20260506203831 12 169 6.4 20.9 0.69 0.18 0.18 73 1008.5
20260506202855 12 222 6.4 24.1 0.00 0.03 0.00 72 1008.5
20260506201903 12 219 8.0 24.1 0.00 0.00 0.00 72 1008.3
20260506195709 12 201 8.0 20.9 0.00 0.05 0.00 72 1008.2
20260506194657 12 180 8.0 20.9 0.00 0.08 0.00 71 1008.2
20260506193652 12 177 6.4 20.9 0.00 0.08 0.00 71 1008.1
20260506192630 12 173 6.4 20.9 0.00 0.15 0.00 71 1007.9
20260506191558 12 196 6.4 19.3 0.00 0.36 0.00 70 1008.0
20260506190602 12 198 6.4 14.5 0.00 0.51 0.00 70 1007.9
20260506185611 13 179 4.8 14.5 0.00 0.64 0.00 69 1007.7
20260506183448 13 173 6.4 24.1 0.00 0.64 0.00 69 1007.4
20260506182434 13 205 6.4 24.1 0.00 0.64 0.00 69 1007.3
20260506181455 13 181 6.4 16.1 0.00 0.64 0.00 69 1007.3
20260506180514 13 170 6.4 17.7 0.00 0.64 0.00 68 1007.3
20260506175528 13 214 6.4 17.7 0.00 0.64 0.00 68 1007.1
20260506173441 14 166 6.4 22.5 0.00 0.64 0.00 67 1006.8
20260506171341 14 173 9.7 20.9 0.00 0.66 0.00 67 1006.6
20260506170323 14 189 8.0 19.3 0.00 0.66 0.00 66 1006.5
20260506165252 15 221 6.4 16.1 0.00 0.66 0.00 65 1006.5
20260506163143 15 164 6.4 17.7 0.00 0.66 0.00 63 1006.5
20260506161041 16 190 6.4 22.5 0.00 0.66 0.00 59 1006.4
20260506160011 16 165 4.8 14.5 0.00 0.66 0.00 57 1006.4
20260506153939 17 130 1.6 8.0 0.00 0.66 0.00 51 1006.2
20260506152913 17 155 1.6 6.4 0.00 0.66 0.00 50 1006.2
20260506151925 18 173 1.6 11.3 0.00 0.66 0.00 50 1006.1
20260506150933 18 171 3.2 9.7 0.00 0.66 0.00 49 1006.2
20260506144748 18 207 1.6 8.0 0.00 0.66 0.00 49 1006.1
20260506143751 18 209 0.0 0.0 0.00 0.66 0.00 50 1006.0
20260506142805 18 271 1.6 9.7 0.00 0.66 0.00 49 1005.9
20260506141829 17 266 1.6 11.3 0.00 0.66 0.00 50 1005.9
20260506140825 17 286 1.6 11.3 0.00 0.66 0.00 49 1005.9
20260506135759 17 234 1.6 8.0 0.00 0.69 0.00 49 1005.9
20260506133650 18 284 3.2 19.3 0.00 0.71 0.00 50 1006.1
20260506132650 18 270 4.8 19.3 0.00 0.74 0.00 50 1006.1
20260506130449 18 238 4.8 17.7 0.00 0.74 0.00 50 1006.0
20260506125442 18 257 1.6 11.3 0.00 0.74 0.00 51 1006.0
20260506124442 18 271 4.8 12.9 0.00 0.74 0.00 51 1006.0
20260506123440 18 277 1.6 17.7 0.00 0.74 0.00 49 1005.9
20260506121255 20 262 4.8 20.9 0.00 0.74 0.00 49 1005.9
20260506120232 19 251 1.6 17.7 0.00 0.74 0.00 49 1005.9
20260506115247 19 209 3.2 17.7 0.00 0.74 0.00 49 1006.0
20260506114232 18 268 4.8 12.9 0.00 0.74 0.00 50 1006.0